RYR8LT EPKK-LMML

Flight info

Callsign RYR8LT
Flight time N/A
Altitude 36000
Route BABKO DCT NIDOK DCT VEBAL DCT KATTI/N0443F370 DCT OBAXU DCT NELDA DCT DIRKA N982 GZO
Aircraft B739/M-V/N

Departure

Time 2026-04-30 17:41
Airport Kraków John Paul II International Airport (EPKK)

Arrival

Time N/A
Airport Malta International Airport (LMML)
Time Latitude Longitude Altitude Speed Heading
2026-04-30 17:39 50.06928 19.72464 2666 ft 183 kts 261°
2026-04-30 17:41 49.96724 19.61934 6719 ft 279 kts 197°
2026-04-30 17:42 49.92930 19.60221 8167 ft 289 kts 195°
2026-04-30 17:42 49.86967 19.57657 10339 ft 304 kts 194°
2026-04-30 17:43 49.82669 19.55849 10939 ft 342 kts 194°
2026-04-30 17:44 49.77128 19.53531 12154 ft 362 kts 194°
2026-04-30 17:44 49.68318 19.49857 14451 ft 378 kts 194°
2026-04-30 17:46 49.55890 19.42346 17446 ft 394 kts 211°
2026-04-30 17:47 49.46272 19.33651 19595 ft 407 kts 211°
2026-04-30 17:48 49.36319 19.24836 21558 ft 419 kts 211°
2026-04-30 17:48 49.28692 19.18124 23004 ft 428 kts 211°
2026-04-30 17:49 49.18204 19.08931 24648 ft 440 kts 211°
2026-04-30 17:50 49.07415 18.99522 26091 ft 451 kts 211°
2026-04-30 17:51 48.99160 18.92353 27164 ft 459 kts 211°
2026-04-30 17:52 48.90766 18.85091 28184 ft 466 kts 210°
2026-04-30 17:53 48.75726 18.75524 29849 ft 476 kts 199°
2026-04-30 17:54 48.63156 18.68645 31004 ft 483 kts 200°
2026-04-30 17:55 48.50529 18.61649 32257 ft 484 kts 200°
2026-04-30 17:56 48.37861 18.54671 33429 ft 485 kts 200°
2026-04-30 17:57 48.28331 18.49448 34213 ft 486 kts 199°
2026-04-30 17:58 48.18823 18.44256 34968 ft 484 kts 199°
2026-04-30 17:59 48.06214 18.37404 35967 ft 479 kts 200°
2026-04-30 18:00 47.93694 18.30635 36326 ft 479 kts 200°
2026-04-30 18:01 47.78107 18.22257 36332 ft 473 kts 200°
2026-04-30 18:02 47.59541 18.12347 36342 ft 473 kts 199°
2026-04-30 18:04 47.40902 18.02474 36351 ft 478 kts 199°
2026-04-30 18:06 47.15796 17.89291 36349 ft 478 kts 200°
2026-04-30 18:08 46.94017 17.77962 36348 ft 472 kts 200°
2026-04-30 18:10 46.69337 17.65242 36349 ft 468 kts 200°
2026-04-30 18:11 46.47850 17.54267 36349 ft 469 kts 200°
2026-04-30 18:13 46.32434 17.46449 36350 ft 470 kts 200°
2026-04-30 18:14 46.17032 17.38685 36349 ft 470 kts 200°
2026-04-30 18:15 45.98501 17.29433 36347 ft 469 kts 198°
2026-04-30 18:16 45.85880 17.24599 36347 ft 468 kts 195°
2026-04-30 18:17 45.79613 17.22289 36340 ft 468 kts 196°
2026-04-30 18:18 45.70171 17.18744 36341 ft 467 kts 196°
2026-04-30 18:18 45.63893 17.16376 36340 ft 466 kts 196°
2026-04-30 18:19 45.57622 17.14017 36338 ft 466 kts 196°
2026-04-30 18:19 45.51355 17.11667 36339 ft 466 kts 197°
2026-04-30 18:20 45.45079 17.09319 36340 ft 465 kts 197°
2026-04-30 18:20 45.38810 17.06980 36339 ft 465 kts 197°
2026-04-30 18:21 45.32590 17.04664 36339 ft 465 kts 197°
2026-04-30 18:21 45.26326 17.02336 36340 ft 465 kts 197°
2026-04-30 18:22 45.20067 17.00016 36337 ft 465 kts 197°
2026-04-30 18:22 45.10669 16.96543 36335 ft 465 kts 197°
2026-04-30 18:23 45.04413 16.94237 36337 ft 464 kts 197°
2026-04-30 18:23 44.98161 16.91938 36339 ft 464 kts 197°
2026-04-30 18:24 44.88787 16.88501 36336 ft 463 kts 197°
2026-04-30 18:25 44.82542 16.86217 36333 ft 463 kts 197°
2026-04-30 18:25 44.73176 16.82802 36329 ft 463 kts 197°
2026-04-30 18:26 44.63857 16.79415 36326 ft 463 kts 197°
2026-04-30 18:27 44.55509 16.76391 36327 ft 463 kts 197°
2026-04-30 18:28 44.46158 16.73014 36335 ft 462 kts 197°
2026-04-30 18:28 44.36862 16.69668 36319 ft 462 kts 198°
2026-04-30 18:29 44.24391 16.65196 36307 ft 462 kts 198°
2026-04-30 18:30 44.11956 16.60757 36290 ft 460 kts 198°
2026-04-30 18:31 44.02653 16.57449 36271 ft 459 kts 198°
2026-04-30 18:32 43.93388 16.54164 36271 ft 458 kts 198°
2026-04-30 18:33 43.84169 16.50906 36251 ft 458 kts 198°
2026-04-30 18:33 43.82085 16.50171 36243 ft 458 kts 198°